This is the latest recevied weather packets stored in our database for station/object N1ORT. If no packets are shown the sender has not sent any weather packets the latest 10 day(s).
| Time | Temp. | Humidity | Pressure | Rain* | Wind** | Luminosity | Snow |
|---|---|---|---|---|---|---|---|
| 1777893169 | 7.78° C | 67% | 1008.5 hPa | 0 mm | - | 80 W/m² | - |
| 1777892866 | 7.78° C | 67% | 1008.3 hPa | 0 mm | - | 62 W/m² | - |
| 1777892562 | 7.78° C | 68% | 1008.6 hPa | 0 mm | - | 70 W/m² | - |
| 1777892258 | 7.78° C | 66% | 1008.6 hPa | 0 mm | - | 68 W/m² | - |
| 1777891954 | 7.22° C | 70% | 1008.4 hPa | 0 mm | - | 64 W/m² | - |
| 1777891653 | 7.22° C | 68% | 1008.6 hPa | 0 mm | - | 38 W/m² | - |
| 1777891348 | 7.22° C | 70% | 1008.6 hPa | 0 mm | - | 38 W/m² | - |
| 1777891043 | 7.22° C | 68% | 1008.4 hPa | 0 mm | - | 37 W/m² | - |
| 1777890738 | 6.67° C | 70% | 1008.5 hPa | 0 mm | - | 28 W/m² | - |
| 1777890434 | 6.67° C | 69% | 1008.5 hPa | 0 mm | - | 34 W/m² | - |
| 1777890130 | 6.67° C | 69% | 1008.4 hPa | 0 mm | - | 31 W/m² | - |
| 1777889827 | 6.67° C | 69% | 1008.3 hPa | 0 mm | - | 26 W/m² | - |
| 1777889524 | 6.67° C | 68% | 1008.4 hPa | 0 mm | - | 24 W/m² | - |
| 1777889221 | 6.67° C | 68% | 1008.2 hPa | 0 mm | - | 19 W/m² | - |
| 1777888920 | 6.67° C | 68% | 1008.3 hPa | 0 mm | - | 14 W/m² | - |
| 1777888616 | 6.67° C | 68% | 1008.4 hPa | 0 mm | - | 11 W/m² | - |
| 1777888312 | 6.67° C | 67% | 1008.3 hPa | 0 mm | - | 8 W/m² | - |
| 1777888009 | 6.67° C | 71% | 1008.3 hPa | 0 mm | - | 5 W/m² | - |
| 1777887706 | 6.11° C | 69% | 1008.3 hPa | 0 mm | - | 3 W/m² | - |
| 1777887403 | 6.11° C | 70% | 1008.1 hPa | 0 mm | - | 2 W/m² | - |
| 1777887098 | 6.11° C | 70% | 1008.2 hPa | 0 mm | - | 1 W/m² | - |
| 1777886794 | 6.11° C | 71% | 1008.1 hPa | 0 mm | - | 0 W/m² | - |
| 1777886491 | 6.11° C | 69% | 1008 hPa | 0 mm | - | 0 W/m² | - |
| 1777886189 | 5.56° C | 71% | 1008.2 hPa | 0 mm | - | 0 W/m² | - |
| 1777885886 | 6.11° C | 69% | 1008 hPa | 0 mm | - | 0 W/m² | - |
* Rain latest hour (hover to see other rain measurements)
** Current wind speed in m/s (hover to see current wind gust speed)